| time (UTC) | temp F | wind direction | speed MPH | gust MPH | rain 1hr in | rain 24hr in | rain mn in | humidity % | barometer mb |
| 20260507090232 | 51 | 295 | 0.0 | 3.0 | 0.00 | 0.21 | 0.02 | 1 | 1010.8 |
| 20260507085723 | 51 | 275 | 0.0 | 0.0 | 0.00 | 0.21 | 0.02 | 1 | 1010.7 |
| 20260507085215 | 51 | 275 | 0.0 | 0.0 | 0.00 | 0.21 | 0.02 | 1 | 1010.7 |
| 20260507084659 | 51 | 277 | 0.0 | 0.0 | 0.00 | 0.21 | 0.02 | 1 | 1010.6 |
| 20260507084204 | 51 | 277 | 0.0 | 0.0 | 0.00 | 0.21 | 0.02 | 1 | 1010.6 |
| 20260507082705 | 51 | 255 | 0.0 | 0.0 | 0.00 | 0.21 | 0.02 | 1 | 1010.4 |
| 20260507082207 | 51 | 255 | 0.0 | 0.0 | 0.00 | 0.21 | 0.02 | 1 | 1010.2 |
| 20260507081715 | 51 | 255 | 0.0 | 0.0 | 0.00 | 0.21 | 0.02 | 1 | 1010.2 |
| 20260507081207 | 51 | 255 | 0.0 | 0.0 | 0.00 | 0.21 | 0.02 | 1 | 1010.0 |
| 20260507080655 | 51 | 255 | 0.0 | 0.0 | 0.00 | 0.21 | 0.02 | 1 | 1010.0 |
| 20260507080156 | 51 | 255 | 0.0 | 0.0 | 0.00 | 0.21 | 0.02 | 1 | 1010.0 |
| 20260507075654 | 51 | 255 | 0.0 | 0.0 | 0.00 | 0.21 | 0.02 | 1 | 1010.0 |
| 20260507075146 | 51 | 255 | 0.0 | 0.0 | 0.00 | 0.21 | 0.02 | 1 | 1010.1 |
| 20260507074627 | 51 | 255 | 0.0 | 0.0 | 0.00 | 0.21 | 0.02 | 1 | 1010.0 |
| 20260507073602 | 51 | 255 | 0.0 | 0.0 | 0.00 | 0.21 | 0.02 | 1 | 1010.0 |
| 20260507073112 | 51 | 255 | 0.0 | 2.0 | 0.00 | 0.21 | 0.02 | 1 | 1010.1 |
| 20260507072617 | 51 | 231 | 0.0 | 0.0 | 0.00 | 0.21 | 0.02 | 1 | 1010.1 |
| 20260507072111 | 51 | 231 | 0.0 | 0.0 | 0.00 | 0.21 | 0.02 | 1 | 1010.1 |
| 20260507071606 | 51 | 229 | 0.0 | 3.0 | 0.00 | 0.21 | 0.02 | 1 | 1010.2 |
| 20260507071105 | 51 | 296 | 0.0 | 0.0 | 0.00 | 0.21 | 0.02 | 1 | 1010.3 |
| 20260507070553 | 51 | 296 | 0.0 | 0.0 | 0.00 | 0.21 | 0.02 | 1 | 1010.5 |
| 20260507070100 | 52 | 299 | 0.0 | 0.0 | 0.00 | 0.21 | 0.02 | 1 | 1010.6 |
| 20260507065040 | 52 | 300 | 0.0 | 0.0 | 0.00 | 0.21 | 0.02 | 1 | 1010.4 |
| 20260507064547 | 52 | 300 | 0.0 | 0.0 | 0.00 | 0.21 | 0.02 | 1 | 1010.3 |
| 20260507063538 | 52 | 257 | 0.0 | 0.0 | 0.00 | 0.21 | 0.02 | 1 | 1010.4 |
| 20260507063033 | 53 | 257 | 0.0 | 0.0 | 0.00 | 0.21 | 0.02 | 1 | 1010.6 |
| 20260507062529 | 53 | 257 | 0.0 | 0.0 | 0.00 | 0.21 | 0.02 | 1 | 1010.4 |
| 20260507062021 | 53 | 257 | 0.0 | 1.0 | 0.00 | 0.21 | 0.02 | 1 | 1010.5 |
| 20260507060958 | 53 | 257 | 0.0 | 1.0 | 0.00 | 0.20 | 0.01 | 1 | 1010.5 |
| 20260507060454 | 53 | 257 | 0.0 | 2.0 | 0.00 | 0.20 | 0.01 | 1 | 1010.5 |
| 20260507055943 | 53 | 257 | 0.0 | 0.0 | 0.00 | 0.20 | 0.01 | 1 | 1010.3 |
| 20260507054907 | 53 | 257 | 0.0 | 0.0 | 0.00 | 0.20 | 0.01 | 1 | 1010.3 |
| 20260507054410 | 53 | 257 | 0.0 | 0.0 | 0.00 | 0.20 | 0.01 | 1 | 1010.2 |
| 20260507053915 | 54 | 257 | 0.0 | 0.0 | 0.00 | 0.20 | 0.01 | 1 | 1010.2 |
| 20260507052909 | 54 | 257 | 0.0 | 0.0 | 0.00 | 0.20 | 0.01 | 1 | 1010.2 |
| 20260507052351 | 54 | 257 | 0.0 | 0.0 | 0.00 | 0.20 | 0.01 | 1 | 1010.1 |
| 20260507051833 | 54 | 257 | 0.0 | 0.0 | 0.00 | 0.20 | 0.01 | 1 | 1010.1 |
| 20260507051339 | 54 | 257 | 0.0 | 0.0 | 0.00 | 0.20 | 0.01 | 1 | 1010.1 |
| 20260507050828 | 54 | 257 | 0.0 | 0.0 | 0.00 | 0.20 | 0.01 | 1 | 1010.3 |
| 20260507050309 | 54 | 257 | 0.0 | 3.0 | 0.00 | 0.20 | 0.01 | 1 | 1010.6 |
| 20260507045813 | 54 | 257 | 0.0 | 0.0 | 0.00 | 0.20 | 0.01 | 1 | 1010.2 |
| 20260507045300 | 54 | 254 | 0.0 | 2.0 | 0.00 | 0.20 | 0.01 | 1 | 1010.4 |
| 20260507044802 | 54 | 246 | 0.0 | 0.0 | 0.00 | 0.20 | 0.01 | 1 | 1010.6 |
| 20260507044245 | 54 | 246 | 0.0 | 2.0 | 0.00 | 0.20 | 0.01 | 1 | 1010.5 |
| 20260507043213 | 55 | 280 | 0.0 | 6.0 | 0.00 | 0.20 | 0.01 | 1 | 1010.4 |
| 20260507042700 | 55 | 9 | 0.0 | 6.0 | 0.00 | 0.20 | 0.01 | 1 | 1010.1 |
| 20260507042147 | 55 | 291 | 0.0 | 3.0 | 0.00 | 0.20 | 0.01 | 1 | 1010.0 |
| 20260507041647 | 55 | 279 | 0.0 | 1.0 | 0.00 | 0.20 | 0.01 | 1 | 1009.8 |
| 20260507041134 | 55 | 279 | 0.0 | 2.0 | 0.00 | 0.19 | 0.01 | 1 | 1009.7 |
| 20260507040618 | 56 | 281 | 0.0 | 0.0 | 0.00 | 0.19 | 0.01 | 1 | 1010.1 |
| 20260507040058 | 56 | 281 | 0.0 | 2.0 | 0.00 | 0.19 | 0.00 | 1 | 1010.0 |
| 20260507035548 | 56 | 271 | 0.0 | 2.0 | 0.00 | 0.19 | 0.20 | 1 | 1010.0 |
| 20260507035038 | 56 | 302 | 0.0 | 0.0 | 0.00 | 0.19 | 0.20 | 1 | 1010.0 |
| 20260507034547 | 56 | 303 | 0.0 | 4.0 | 0.00 | 0.19 | 0.20 | 1 | 1010.0 |
| 20260507034042 | 56 | 277 | 0.0 | 0.0 | 0.00 | 0.19 | 0.20 | 1 | 1009.7 |
| 20260507033544 | 57 | 278 | 0.0 | 1.0 | 0.00 | 0.19 | 0.20 | 1 | 1009.6 |
| 20260507033036 | 57 | 277 | 0.0 | 3.0 | 0.00 | 0.19 | 0.20 | 1 | 1009.5 |
| 20260507032542 | 57 | 252 | 1.0 | 0.0 | 0.00 | 0.19 | 0.20 | 1 | 1009.3 |
| 20260507031532 | 57 | 289 | 1.0 | 6.0 | 0.00 | 0.19 | 0.20 | 1 | 1009.4 |
| 20260507031026 | 58 | 322 | 0.0 | 6.0 | 0.00 | 0.19 | 0.19 | 1 | 1009.8 |
| 20260507030535 | 58 | 284 | 0.0 | 5.0 | 0.00 | 0.19 | 0.19 | 1 | 1009.6 |
| 20260507030027 | 58 | 267 | 0.0 | 1.0 | 0.00 | 0.19 | 0.19 | 1 | 1009.5 |
| 20260507025017 | 58 | 267 | 0.0 | 3.0 | 0.00 | 0.19 | 0.19 | 1 | 1009.2 |
| 20260507024504 | 58 | 267 | 0.0 | 3.0 | 0.00 | 0.19 | 0.19 | 1 | 1009.2 |
| 20260507023946 | 58 | 266 | 0.0 | 2.0 | 0.00 | 0.19 | 0.19 | 1 | 1009.4 |
| 20260507023443 | 58 | 266 | 0.0 | 2.0 | 0.00 | 0.19 | 0.19 | 1 | 1009.5 |
| 20260507022926 | 58 | 266 | 0.0 | 3.0 | 0.00 | 0.19 | 0.19 | 1 | 1009.5 |
| 20260507022418 | 58 | 266 | 0.0 | 3.0 | 0.00 | 0.19 | 0.19 | 1 | 1009.1 |
| 20260507021906 | 58 | 295 | 0.0 | 0.0 | 0.00 | 0.19 | 0.19 | 1 | 1009.2 |
| 20260507021402 | 58 | 295 | 1.0 | 5.0 | 0.00 | 0.19 | 0.19 | 1 | 1009.2 |
| 20260507020908 | 58 | 285 | 1.0 | 6.0 | 0.00 | 0.19 | 0.19 | 1 | 1009.1 |
| 20260507020351 | 58 | 273 | 1.0 | 6.0 | 0.00 | 0.19 | 0.19 | 1 | 1009.1 |
| 20260507015837 | 59 | 288 | 0.0 | 6.0 | 0.00 | 0.19 | 0.19 | 1 | 1009.2 |
| 20260507014838 | 59 | 308 | 1.0 | 4.0 | 0.00 | 0.19 | 0.19 | 1 | 1008.9 |
| 20260507014341 | 59 | 257 | 1.0 | 4.0 | 0.00 | 0.19 | 0.19 | 1 | 1008.9 |
| 20260507013837 | 59 | 316 | 0.0 | 7.0 | 0.00 | 0.19 | 0.19 | 1 | 1008.9 |
| 20260507013323 | 60 | 166 | 1.0 | 7.0 | 0.00 | 0.19 | 0.19 | 1 | 1009.0 |
| 20260507012826 | 60 | 319 | 1.0 | 7.0 | 0.00 | 0.18 | 0.18 | 1 | 1009.1 |
| 20260507012311 | 60 | 280 | 1.0 | 7.0 | 0.00 | 0.18 | 0.18 | 1 | 1009.4 |
| 20260507011815 | 61 | 310 | 1.0 | 6.0 | 0.00 | 0.18 | 0.18 | 1 | 1009.1 |
| 20260507011324 | 61 | 297 | 0.0 | 5.0 | 0.00 | 0.18 | 0.18 | 1 | 1009.2 |
| 20260507010808 | 61 | 273 | 0.0 | 5.0 | 0.00 | 0.18 | 0.18 | 1 | 1009.2 |
| 20260507010307 | 62 | 314 | 0.0 | 6.0 | 0.00 | 0.18 | 0.18 | 1 | 1009.2 |
| 20260507005817 | 62 | 294 | 0.0 | 4.0 | 0.00 | 0.18 | 0.18 | 1 | 1009.3 |
| 20260507005300 | 62 | 351 | 1.0 | 7.0 | 0.00 | 0.18 | 0.18 | 1 | 1009.1 |
| 20260507004757 | 63 | 325 | 1.0 | 7.0 | 0.00 | 0.18 | 0.18 | 1 | 1009.0 |
| 20260507004253 | 64 | 323 | 0.0 | 5.0 | 0.00 | 0.18 | 0.18 | 1 | 1009.1 |
| 20260507003742 | 65 | 223 | 0.0 | 5.0 | 0.00 | 0.18 | 0.18 | 1 | 1009.1 |
| 20260507003225 | 65 | 267 | 0.0 | 2.0 | 0.00 | 0.18 | 0.18 | 1 | 1008.7 |
| 20260507002708 | 65 | 248 | 0.0 | 3.0 | 0.00 | 0.18 | 0.18 | 1 | 1008.6 |
| 20260507002216 | 65 | 88 | 0.0 | 0.0 | 0.00 | 0.18 | 0.18 | 1 | 1008.6 |
| 20260507001707 | 65 | 88 | 0.0 | 1.0 | 0.00 | 0.16 | 0.17 | 1 | 1008.8 |
| 20260507001159 | 66 | 87 | 0.0 | 0.0 | 0.00 | 0.16 | 0.17 | 1 | 1008.3 |
| 20260507000207 | 66 | 87 | 0.0 | 2.0 | 0.00 | 0.16 | 0.17 | 1 | 1008.3 |
| 20260506235654 | 66 | 157 | 0.0 | 0.0 | 0.00 | 0.16 | 0.17 | 1 | 1008.2 |
| 20260506235203 | 67 | 150 | 0.0 | 0.0 | 0.00 | 0.16 | 0.16 | 1 | 1008.0 |
| 20260506234647 | 67 | 148 | 0.0 | 0.0 | 0.00 | 0.16 | 0.16 | 1 | 1007.8 |
| 20260506234157 | 67 | 148 | 0.0 | 0.0 | 0.00 | 0.16 | 0.16 | 1 | 1007.6 |
| 20260506233656 | 67 | 148 | 0.0 | 0.0 | 0.00 | 0.16 | 0.16 | 1 | 1007.6 |
| 20260506233150 | 67 | 148 | 0.0 | 0.0 | 0.00 | 0.16 | 0.16 | 1 | 1007.6 |
| 20260506232656 | 68 | 148 | 0.0 | 3.0 | 0.00 | 0.16 | 0.16 | 1 | 1007.5 |
| 20260506232206 | 68 | 148 | 0.0 | 2.0 | 0.00 | 0.16 | 0.16 | 1 | 1007.7 |
| 20260506231709 | 68 | 149 | 0.0 | 1.0 | 0.00 | 0.16 | 0.16 | 1 | 1007.5 |
| 20260506231210 | 68 | 149 | 0.0 | 0.0 | 0.00 | 0.16 | 0.16 | 1 | 1007.4 |
| 20260506230703 | 68 | 148 | 1.0 | 4.0 | 0.00 | 0.16 | 0.16 | 1 | 1007.5 |
| 20260506230159 | 68 | 148 | 1.0 | 4.0 | 0.00 | 0.16 | 0.16 | 1 | 1007.4 |
| 20260506225133 | 69 | 142 | 0.0 | 4.0 | 0.00 | 0.16 | 0.16 | 1 | 1007.5 |
| 20260506224633 | 69 | 140 | 0.0 | 4.0 | 0.00 | 0.16 | 0.16 | 1 | 1007.6 |
| 20260506223609 | 69 | 143 | 1.0 | 7.0 | 0.00 | 0.16 | 0.16 | 1 | 1007.4 |
| 20260506223056 | 68 | 276 | 1.0 | 7.0 | 0.00 | 0.16 | 0.16 | 1 | 1007.5 |
| 20260506222559 | 68 | 155 | 1.0 | 7.0 | 0.00 | 0.16 | 0.16 | 1 | 1007.5 |
| 20260506221034 | 67 | 152 | 0.0 | 5.0 | 0.00 | 0.16 | 0.16 | 1 | 1007.4 |
| 20260506220011 | 67 | 199 | 0.0 | 1.0 | 0.00 | 0.16 | 0.16 | 1 | 1007.5 |
| 20260506215519 | 67 | 199 | 0.0 | 1.0 | 0.00 | 0.16 | 0.16 | 1 | 1007.4 |
| 20260506215015 | 67 | 199 | 0.0 | 1.0 | 0.00 | 0.16 | 0.16 | 1 | 1007.4 |
| 20260506214518 | 67 | 197 | 0.0 | 0.0 | 0.00 | 0.16 | 0.16 | 1 | 1007.3 |
| 20260506214016 | 67 | 279 | 1.0 | 8.0 | 0.00 | 0.16 | 0.16 | 1 | 1007.3 |
| 20260506213506 | 67 | 298 | 1.0 | 8.0 | 0.00 | 0.16 | 0.16 | 1 | 1007.3 |
| 20260506212959 | 67 | 164 | 0.0 | 3.0 | 0.00 | 0.16 | 0.16 | 1 | 1007.1 |
| 20260506212448 | 67 | 164 | 0.0 | 0.0 | 0.00 | 0.16 | 0.16 | 1 | 1007.2 |
| 20260506211953 | 68 | 164 | 0.0 | 5.0 | 0.00 | 0.16 | 0.16 | 1 | 1007.1 |
| 20260506211442 | 68 | 164 | 1.0 | 5.0 | 0.00 | 0.16 | 0.16 | 1 | 1007.0 |
| 20260506210947 | 68 | 164 | 1.0 | 5.0 | 0.00 | 0.16 | 0.16 | 1 | 1006.9 |
| 20260506210438 | 68 | 172 | 0.0 | 4.0 | 0.00 | 0.16 | 0.16 | 1 | 1006.8 |
| 20260506205936 | 68 | 284 | 0.0 | 2.0 | 0.00 | 0.16 | 0.16 | 1 | 1006.9 |
| 20260506205435 | 67 | 202 | 0.0 | 1.0 | 0.00 | 0.16 | 0.16 | 1 | 1006.8 |
| 20260506204932 | 67 | 204 | 0.0 | 1.0 | 0.00 | 0.16 | 0.16 | 1 | 1006.6 |
| 20260506204418 | 67 | 214 | 0.0 | 0.0 | 0.00 | 0.16 | 0.16 | 1 | 1006.7 |
| 20260506203426 | 68 | 205 | 0.0 | 0.0 | 0.00 | 0.16 | 0.16 | 1 | 1006.8 |
| 20260506202405 | 67 | 143 | 0.0 | 0.0 | 0.00 | 0.16 | 0.16 | 1 | 1006.9 |
| 20260506201900 | 67 | 296 | 0.0 | 1.0 | 0.00 | 0.16 | 0.16 | 1 | 1006.9 |
| 20260506200907 | 67 | 277 | 0.0 | 5.0 | 0.00 | 0.16 | 0.16 | 1 | 1006.8 |
| 20260506200348 | 67 | 279 | 0.0 | 3.0 | 0.00 | 0.16 | 0.16 | 1 | 1007.0 |
| 20260506195843 | 67 | 264 | 0.0 | 0.0 | 0.00 | 0.16 | 0.16 | 1 | 1006.9 |
| 20260506195325 | 67 | 264 | 0.0 | 5.0 | 0.00 | 0.16 | 0.16 | 1 | 1007.0 |
| 20260506194811 | 67 | 283 | 0.0 | 6.0 | 0.00 | 0.16 | 0.16 | 1 | 1006.9 |
| 20260506194254 | 67 | 150 | 0.0 | 6.0 | 0.00 | 0.16 | 0.16 | 1 | 1006.9 |
| 20260506193755 | 68 | 283 | 0.0 | 7.0 | 0.00 | 0.16 | 0.16 | 1 | 1007.0 |
| 20260506193243 | 68 | 275 | 0.0 | 7.0 | 0.00 | 0.16 | 0.16 | 1 | 1006.9 |
| 20260506192747 | 68 | 141 | 1.0 | 7.0 | 0.00 | 0.16 | 0.16 | 1 | 1006.8 |
| 20260506191748 | 68 | 261 | 1.0 | 2.0 | 0.00 | 0.16 | 0.16 | 1 | 1006.9 |
| 20260506191236 | 68 | 233 | 1.0 | 8.0 | 0.00 | 0.16 | 0.16 | 1 | 1007.0 |
| 20260506190722 | 67 | 153 | 1.0 | 8.0 | 0.00 | 0.16 | 0.16 | 1 | 1006.9 |
| 20260506185200 | 66 | 139 | 2.0 | 11.0 | 0.00 | 0.16 | 0.16 | 1 | 1007.1 |
| 20260506184647 | 65 | 136 | 2.0 | 11.0 | 0.00 | 0.16 | 0.16 | 1 | 1007.1 |
| 20260506184154 | 65 | 232 | 3.0 | 11.0 | 0.00 | 0.16 | 0.16 | 1 | 1007.2 |
| 20260506183637 | 64 | 155 | 4.0 | 11.0 | 0.00 | 0.16 | 0.16 | 1 | 1007.2 |
| 20260506183128 | 64 | 152 | 3.0 | 13.0 | 0.00 | 0.16 | 0.16 | 1 | 1007.2 |
| 20260506182625 | 64 | 180 | 2.0 | 13.0 | 0.00 | 0.16 | 0.16 | 1 | 1007.2 |
| 20260506182135 | 64 | 154 | 4.0 | 13.0 | 0.00 | 0.16 | 0.16 | 1 | 1007.2 |
| 20260506181153 | 64 | 252 | 1.0 | 9.0 | 0.00 | 0.16 | 0.16 | 1 | 1007.2 |
| 20260506180638 | 64 | 133 | 2.0 | 9.0 | 0.00 | 0.16 | 0.16 | 1 | 1007.4 |
| 20260506180121 | 64 | 155 | 3.0 | 9.0 | 0.00 | 0.16 | 0.16 | 1 | 1007.4 |
| 20260506175630 | 64 | 154 | 2.0 | 9.0 | 0.00 | 0.16 | 0.16 | 1 | 1007.4 |
| 20260506174622 | 64 | 175 | 2.0 | 9.0 | 0.00 | 0.16 | 0.16 | 1 | 1007.5 |
| 20260506173607 | 63 | 189 | 2.0 | 9.0 | 0.00 | 0.16 | 0.16 | 1 | 1007.4 |
| 20260506173109 | 63 | 144 | 2.0 | 8.0 | 0.00 | 0.16 | 0.16 | 1 | 1007.4 |
| 20260506172608 | 63 | 159 | 2.0 | 14.0 | 0.00 | 0.16 | 0.16 | 1 | 1007.4 |
| 20260506172057 | 63 | 160 | 2.0 | 14.0 | 0.00 | 0.16 | 0.16 | 1 | 1007.6 |
| 20260506171540 | 63 | 140 | 4.0 | 14.0 | 0.00 | 0.16 | 0.16 | 1 | 1007.5 |
| 20260506171042 | 62 | 171 | 4.0 | 14.0 | 0.00 | 0.16 | 0.16 | 1 | 1007.4 |
| 20260506170540 | 62 | 160 | 3.0 | 11.0 | 0.00 | 0.16 | 0.16 | 1 | 1007.6 |
| 20260506170041 | 62 | 146 | 2.0 | 11.0 | 0.00 | 0.16 | 0.16 | 1 | 1007.5 |
| 20260506165537 | 62 | 157 | 2.0 | 11.0 | 0.00 | 0.16 | 0.16 | 1 | 1007.5 |
| 20260506165023 | 62 | 169 | 4.0 | 10.0 | 0.00 | 0.16 | 0.16 | 1 | 1007.4 |
| 20260506164507 | 62 | 142 | 4.0 | 10.0 | 0.00 | 0.16 | 0.16 | 1 | 1007.5 |
| 20260506164010 | 62 | 159 | 3.0 | 9.0 | 0.00 | 0.16 | 0.16 | 1 | 1007.5 |
| 20260506163510 | 62 | 157 | 3.0 | 13.0 | 0.00 | 0.16 | 0.16 | 1 | 1007.6 |
| 20260506162959 | 62 | 139 | 3.0 | 13.0 | 0.00 | 0.16 | 0.16 | 1 | 1007.5 |
| 20260506162458 | 61 | 142 | 3.0 | 13.0 | 0.00 | 0.16 | 0.16 | 1 | 1007.5 |
| 20260506161954 | 61 | 133 | 3.0 | 13.0 | 0.00 | 0.16 | 0.16 | 1 | 1007.4 |
| 20260506161449 | 61 | 160 | 3.0 | 10.0 | 0.00 | 0.16 | 0.16 | 1 | 1007.4 |
| 20260506160429 | 61 | 146 | 4.0 | 11.0 | 0.00 | 0.16 | 0.16 | 1 | 1007.6 |
| 20260506155359 | 61 | 160 | 4.0 | 17.0 | 0.00 | 0.16 | 0.16 | 1 | 1007.7 |
| 20260506154335 | 61 | 211 | 4.0 | 17.0 | 0.00 | 0.16 | 0.16 | 1 | 1007.6 |
| 20260506153840 | 61 | 188 | 4.0 | 12.0 | 0.00 | 0.16 | 0.16 | 1 | 1007.5 |
| 20260506153349 | 61 | 165 | 4.0 | 15.0 | 0.00 | 0.16 | 0.16 | 1 | 1007.3 |
| 20260506152836 | 61 | 153 | 4.0 | 15.0 | 0.00 | 0.16 | 0.16 | 1 | 1007.4 |
| 20260506152344 | 61 | 144 | 5.0 | 15.0 | 0.00 | 0.16 | 0.16 | 1 | 1007.6 |
| 20260506151828 | 61 | 171 | 5.0 | 15.0 | 0.00 | 0.16 | 0.16 | 1 | 1007.8 |
| 20260506151313 | 61 | 143 | 5.0 | 13.0 | 0.00 | 0.14 | 0.15 | 1 | 1007.7 |
| 20260506150755 | 61 | 163 | 4.0 | 11.0 | 0.04 | 0.14 | 0.15 | 1 | 1007.6 |
| 20260506150237 | 61 | 167 | 4.0 | 10.0 | 0.06 | 0.14 | 0.15 | 1 | 1007.8 |
| 20260506145240 | 61 | 170 | 3.0 | 12.0 | 0.17 | 0.13 | 0.15 | 1 | 1008.2 |
| 20260506144728 | 61 | 144 | 3.0 | 12.0 | 0.05 | 0.13 | 0.13 | 1 | 1008.3 |
| 20260506144217 | 61 | 164 | 4.0 | 12.0 | 0.04 | 0.12 | 0.12 | 1 | 1008.4 |
| 20260506143707 | 61 | 125 | 4.0 | 13.0 | 0.04 | 0.12 | 0.12 | 1 | 1008.2 |
| 20260506143156 | 61 | 133 | 4.0 | 13.0 | 0.04 | 0.10 | 0.10 | 1 | 1008.0 |
| 20260506142645 | 61 | 152 | 5.0 | 13.0 | 0.00 | 0.10 | 0.10 | 1 | 1007.9 |
| 20260506141625 | 61 | 160 | 2.0 | 9.0 | 0.00 | 0.09 | 0.10 | 1 | 1007.8 |
| 20260506141119 | 61 | 166 | 2.0 | 10.0 | 0.00 | 0.09 | 0.10 | 1 | 1008.0 |
| 20260506140623 | 61 | 244 | 3.0 | 11.0 | 0.05 | 0.09 | 0.10 | 1 | 1008.0 |
| 20260506140130 | 61 | 144 | 2.0 | 11.0 | 0.06 | 0.09 | 0.10 | 1 | 1008.0 |
| 20260506135625 | 61 | 172 | 1.0 | 13.0 | 0.06 | 0.09 | 0.10 | 1 | 1007.9 |
| 20260506135123 | 61 | 162 | 1.0 | 13.0 | 0.09 | 0.09 | 0.09 | 1 | 1008.0 |
| 20260506134609 | 61 | 142 | 2.0 | 11.0 | 0.10 | 0.08 | 0.09 | 1 | 1007.9 |
| 20260506134100 | 61 | 180 | 1.0 | 11.0 | 0.04 | 0.08 | 0.08 | 1 | 1008.2 |
| 20260506133543 | 60 | 134 | 1.0 | 9.0 | 0.04 | 0.06 | 0.06 | 1 | 1008.4 |
| 20260506133038 | 60 | 145 | 0.0 | 9.0 | 0.04 | 0.06 | 0.06 | 1 | 1008.6 |
| 20260506132543 | 60 | 158 | 0.0 | 0.0 | 0.04 | 0.06 | 0.06 | 1 | 1008.6 |
| 20260506132053 | 60 | 150 | 0.0 | 0.0 | 0.04 | 0.06 | 0.06 | 1 | 1008.4 |
| 20260506131558 | 60 | 138 | 0.0 | 6.0 | 0.04 | 0.06 | 0.06 | 1 | 1008.3 |
| 20260506131044 | 60 | 127 | 0.0 | 7.0 | 0.04 | 0.06 | 0.06 | 1 | 1008.4 |
| 20260506130538 | 60 | 180 | 1.0 | 7.0 | 0.04 | 0.04 | 0.05 | 1 | 1008.4 |
| 20260506130036 | 60 | 165 | 0.0 | 8.0 | 0.06 | 0.04 | 0.05 | 1 | 1008.4 |
| 20260506125526 | 60 | 134 | 0.0 | 6.0 | 0.06 | 0.04 | 0.05 | 1 | 1008.2 |
| 20260506125016 | 60 | 155 | 0.0 | 0.0 | 0.06 | 0.04 | 0.04 | 1 | 1008.1 |
| 20260506124501 | 60 | 136 | 0.0 | 1.0 | 0.08 | 0.04 | 0.04 | 1 | 1008.1 |
| 20260506123947 | 61 | 150 | 0.0 | 3.0 | 0.06 | 0.03 | 0.03 | 1 | 1008.2 |
| 20260506123442 | 61 | 138 | 0.0 | 4.0 | 0.06 | 0.02 | 0.02 | 1 | 1008.2 |
| 20260506122950 | 61 | 173 | 0.0 | 8.0 | 0.05 | 0.02 | 0.02 | 1 | 1008.2 |
| 20260506122447 | 62 | 128 | 0.0 | 11.0 | 0.05 | 0.01 | 0.01 | 1 | 1008.3 |
| 20260506121438 | 62 | 153 | 0.0 | 7.0 | 0.00 | 0.01 | 0.01 | 1 | 1008.4 |
| 20260506120942 | 63 | 182 | 0.0 | 2.0 | 0.00 | 0.00 | 0.00 | 1 | 1008.4 |
| 20260506120448 | 63 | 267 | 1.0 | 13.0 | 0.00 | 0.00 | 0.00 | 1 | 1008.6 |
| 20260506114435 | 64 | 150 | 0.0 | 8.0 | 0.00 | 0.00 | 0.00 | 1 | 1008.6 |
| 20260506113919 | 64 | 170 | 0.0 | 0.0 | 0.00 | 0.00 | 0.00 | 1 | 1008.5 |
| 20260506112925 | 64 | 120 | 0.0 | 7.0 | 0.00 | 0.00 | 0.00 | 1 | 1008.3 |
| 20260506112429 | 64 | 240 | 0.0 | 0.0 | 0.00 | 0.00 | 0.00 | 1 | 1008.1 |
| 20260506111939 | 64 | 186 | 0.0 | 7.0 | 0.00 | 0.00 | 0.00 | 1 | 1008.2 |
| 20260506111435 | 64 | 151 | 0.0 | 7.0 | 0.00 | 0.00 | 0.00 | 5 | 1008.1 |
| 20260506110928 | 64 | 157 | 0.0 | 6.0 | 0.00 | 0.00 | 0.00 | 7 | 1008.1 |
| 20260506105913 | 65 | 136 | 0.0 | 11.0 | 0.00 | 0.00 | 0.00 | 17 | 1007.9 |
| 20260506105421 | 65 | 144 | 0.0 | 0.0 | 0.00 | 0.00 | 0.00 | 22 | 1008.0 |
| 20260506104909 | 65 | 113 | 0.0 | 9.0 | 0.00 | 0.00 | 0.00 | 26 | 1007.7 |
| 20260506104416 | 65 | 137 | 0.0 | 8.0 | 0.00 | 0.00 | 0.00 | 27 | 1007.8 |
| 20260506103916 | 65 | 173 | 0.0 | 7.0 | 0.00 | 0.00 | 0.00 | 30 | 1007.6 |
| 20260506103359 | 65 | 157 | 0.0 | 4.0 | 0.00 | 0.00 | 0.00 | 32 | 1007.5 |
| 20260506102908 | 65 | 154 | 0.0 | 6.0 | 0.00 | 0.00 | 0.00 | 33 | 1007.5 |
| 20260506102357 | 65 | 171 | 0.0 | 11.0 | 0.00 | 0.00 | 0.00 | 35 | 1007.5 |
| 20260506101856 | 65 | 90 | 0.0 | 11.0 | 0.00 | 0.00 | 0.00 | 36 | 1007.4 |
| 20260506101346 | 65 | 149 | 0.0 | 0.0 | 0.00 | 0.00 | 0.00 | 38 | 1007.5 |
| 20260506100848 | 65 | 111 | 0.0 | 7.0 | 0.00 | 0.00 | 0.00 | 40 | 1007.4 |
| 20260506095839 | 66 | 134 | 0.0 | 14.0 | 0.00 | 0.00 | 0.00 | 43 | 1007.4 |
| 20260506095347 | 66 | 147 | 0.0 | 14.0 | 0.00 | 0.00 | 0.00 | 44 | 1007.5 |
| 20260506094844 | 66 | 155 | 0.0 | 14.0 | 0.00 | 0.00 | 0.00 | 44 | 1007.5 |
| 20260506094342 | 66 | 148 | 0.0 | 8.0 | 0.00 | 0.00 | 0.00 | 46 | 1007.5 |
| 20260506092308 | 66 | 151 | 0.0 | 10.0 | 0.00 | 0.00 | 0.00 | 49 | 1007.4 |
| 20260506091752 | 66 | 144 | 0.0 | 12.0 | 0.00 | 0.00 | 0.00 | 50 | 1007.4 |
| 20260506091254 | 66 | 150 | 0.0 | 3.0 | 0.00 | 0.00 | 0.00 | 51 | 1007.4 |
| 20260506090802 | 66 | 175 | 0.0 | 10.0 | 0.00 | 0.00 | 0.00 | 51 | 1007.5 |